Weather History for KONZ - October, 2012

Change the Weather History Date:

Sunday, October 14, 2012

  Actual Average (KDTW) Record (KDTW)
Temperature  
Mean Temperature 62 °F 53 °F  
Max Temperature 68 °F 62 °F 83 °F (1975)
Min Temperature 57 °F 44 °F 27 °F (1937)
Degree Days  
Heating Degree Days 2 12  
Month to date heating degree days 142  
Since 1 July heating degree days 256  
Cooling Degree Days 0 0  
Month to date cooling degree days 7  
Year to date cooling degree days 802  
Growing Degree Days 12 (Base 50)    
Moisture  
Dew Point 57 °F    
Average Humidity 83    
Maximum Humidity 94    
Minimum Humidity 68    
Precipitation  
Precipitation 0.03 in 0.08 in 1.78 in (2003)
Month to date precipitation 1.17  
Year to date precipitation 26.87  
Snow  
Snow 0.00 in 0.00 in T in (1986)
Month to date snowfall 0.0  
Since 1 July snowfall 0.0  
Since 1 September snowfall 0.0  
Snow Depth -    
Sea Level Pressure  
Sea Level Pressure 29.70 in    
Wind  
Wind Speed 12 mph (SSW)    
Max Wind Speed 24 mph    
Max Gust Speed 40 mph    
Visibility 8 miles    
Events Rain    
T = Trace of Precipitation, MM = Missing Value Source: NWS Daily Summary

Daily Weather History Graph

Daily Weather History Graph

Search for Another Location

Airport or City:

Trip Planner

Search our weather history database for the weather conditions in past years. The results will help you decide how hot, cold, wet, or windy it might be!

Date:

Astronomy

Oct. 14, 2012 Rise Set
Actual Time 7:44 AM EDT 6:51 PM EDT
Civil Twilight 7:16 AM EDT 7:19 PM EDT
Nautical Twilight 6:44 AM EDT 7:52 PM EDT
Astronomical Twilight 6:11 AM EDT 8:24 PM EDT
Moon 6:42 AM EDT (10/14) 6:10 PM EDT (10/14)
Length of Visible Light 12h 03m
Length of Day
11h 07m
Waning Crescent, 1% of the Moon is Illuminated
Oct 14
Waning Crescent
Oct 15
New
Oct 21
First Quarter
Oct 29
Full
Nov 6
Last Quarter

Hourly Weather History & Observations

Time (EDT) Temp. Dew Point Humidity Pressure Visibility Wind Dir Wind Speed Gust Speed Precip Events Conditions
12:14 AM 60.8 °F 57.2 °F 88% 29.90 in 7.0 mi SSW 9.2 mph - 0.04 in Rain Rain
12:34 AM 60.8 °F 57.2 °F 88% 29.89 in 7.0 mi South 8.1 mph - 0.04 in   Overcast
1:14 AM 57.2 °F 55.4 °F 94% 29.88 in 5.0 mi South 8.1 mph - N/A   Mostly Cloudy
1:34 AM 57.2 °F 55.4 °F 94% 29.88 in 5.0 mi South 8.1 mph - N/A   Mostly Cloudy
1:54 AM 59.0 °F 55.4 °F 88% 29.87 in 5.0 mi South 10.4 mph - N/A   Mostly Cloudy
2:14 AM 59.0 °F 55.4 °F 88% 29.87 in 5.0 mi South 11.5 mph - N/A   Mostly Cloudy
2:34 AM 62.6 °F 59.0 °F 88% 29.87 in 5.0 mi SSW 11.5 mph - N/A   Mostly Cloudy
2:54 AM 64.4 °F 60.8 °F 88% 29.87 in 7.0 mi SSW 9.2 mph - N/A Rain Light Rain
3:34 AM 64.4 °F 60.8 °F 88% 29.86 in 5.0 mi SSW 9.2 mph - 0.01 in   Scattered Clouds
3:54 AM 60.8 °F 57.2 °F 88% 29.86 in 4.0 mi South 8.1 mph - 0.01 in   Scattered Clouds
4:14 AM 60.8 °F 57.2 °F 88% 29.85 in 3.0 mi South 8.1 mph - N/A Rain Light Rain
4:34 AM 60.8 °F 57.2 °F 88% 29.85 in 3.0 mi South 9.2 mph - N/A   Mostly Cloudy
4:54 AM 60.8 °F 57.2 °F 88% 29.85 in 4.0 mi South 9.2 mph - N/A   Scattered Clouds
5:14 AM 64.4 °F 60.8 °F 88% 29.85 in 7.0 mi SSW 11.5 mph - N/A   Scattered Clouds
5:35 AM 64.4 °F 60.8 °F 88% 29.85 in 7.0 mi SSW 11.5 mph - N/A   Scattered Clouds
5:54 AM 64.4 °F 60.8 °F 88% 29.85 in 7.0 mi South 8.1 mph - N/A   Mostly Cloudy
6:14 AM 64.4 °F 60.8 °F 88% 29.85 in 7.0 mi SSW 10.4 mph - N/A   Scattered Clouds
6:35 AM 64.4 °F 60.8 °F 88% 29.84 in 7.0 mi SSW 11.5 mph - N/A   Scattered Clouds
6:54 AM 64.4 °F 60.8 °F 88% 29.85 in 7.0 mi SSW 13.8 mph - N/A   Scattered Clouds
7:14 AM 60.8 °F 57.2 °F 88% 29.84 in 5.0 mi South 11.5 mph - N/A   Clear
7:34 AM 59.0 °F 55.4 °F 88% 29.83 in 5.0 mi South 9.2 mph - N/A   Clear
7:54 AM 57.2 °F 55.4 °F 94% 29.82 in 5.0 mi South 9.2 mph - N/A   Clear
8:14 AM 60.8 °F 55.4 °F 82% 29.82 in 7.0 mi South 10.4 mph - N/A   Mostly Cloudy
8:34 AM 60.8 °F 55.4 °F 82% 29.82 in 5.0 mi South 10.4 mph - N/A   Mostly Cloudy
8:54 AM 59.0 °F 55.4 °F 88% 29.82 in 5.0 mi South 9.2 mph - N/A   Scattered Clouds
9:14 AM 60.8 °F 55.4 °F 82% 29.82 in 7.0 mi South 11.5 mph - N/A   Scattered Clouds
9:34 AM 60.8 °F 55.4 °F 82% 29.81 in 7.0 mi South 10.4 mph - N/A   Mostly Cloudy
9:54 AM 60.8 °F 55.4 °F 82% 29.80 in 5.0 mi South 9.2 mph - N/A   Mostly Cloudy
10:15 AM 60.8 °F 55.4 °F 82% 29.79 in 7.0 mi South 11.5 mph - N/A   Clear
10:34 AM 60.8 °F 55.4 °F 82% 29.78 in 7.0 mi South 13.8 mph - N/A   Clear
10:54 AM 60.8 °F 55.4 °F 82% 29.77 in 7.0 mi South 11.5 mph - N/A   Clear
11:15 AM 60.8 °F 57.2 °F 88% 29.75 in 10.0 mi South 12.7 mph - N/A   Clear
11:34 AM 62.6 °F 57.2 °F 82% 29.74 in 10.0 mi South 13.8 mph - N/A   Scattered Clouds
11:54 AM 60.8 °F 57.2 °F 88% 29.72 in 10.0 mi South 16.1 mph - N/A   Scattered Clouds
12:15 PM 62.6 °F 57.2 °F 82% 29.70 in 10.0 mi South 18.4 mph - N/A   Clear
12:34 PM 62.6 °F 57.2 °F 82% 29.69 in 10.0 mi South 17.3 mph 26.5 mph N/A   Clear
12:54 PM 64.4 °F 57.2 °F 77% 29.69 in 10.0 mi South 20.7 mph 25.3 mph N/A   Mostly Cloudy
1:14 PM 66.2 °F 57.2 °F 73% 29.70 in 7.0 mi SSW 21.9 mph 28.8 mph N/A Rain Light Rain
1:34 PM 66.2 °F 57.2 °F 73% 29.70 in 10.0 mi SSW 18.4 mph 27.6 mph N/A   Mostly Cloudy
1:54 PM 66.2 °F 57.2 °F 73% 29.69 in 10.0 mi SSW 18.4 mph 25.3 mph N/A   Mostly Cloudy
2:14 PM 68.0 °F 57.2 °F 68% 29.68 in 10.0 mi SSW 17.3 mph 24.2 mph N/A Rain Light Rain
2:34 PM 66.2 °F 57.2 °F 73% 29.68 in 10.0 mi SSW 16.1 mph 23.0 mph N/A   Drizzle
2:54 PM 66.2 °F 59.0 °F 78% 29.67 in 7.0 mi SSW 15.0 mph - N/A Rain Rain
3:14 PM 66.2 °F 59.0 °F 78% 29.65 in 10.0 mi SSW 18.4 mph 23.0 mph 0.01 in Rain Light Rain
3:34 PM 64.4 °F 59.0 °F 83% 29.63 in 7.0 mi South 15.0 mph - 0.01 in Rain Light Rain
3:54 PM 60.8 °F 57.2 °F 88% 29.62 in 10.0 mi South 11.5 mph - 0.02 in Rain Light Rain
4:14 PM 62.6 °F 57.2 °F 82% 29.60 in 10.0 mi South 17.3 mph 21.9 mph N/A   Mostly Cloudy
4:34 PM 62.6 °F 57.2 °F 82% 29.59 in 10.0 mi South 17.3 mph - N/A   Scattered Clouds
4:54 PM 62.6 °F 57.2 °F 82% 29.59 in 10.0 mi South 16.1 mph - N/A   Scattered Clouds
5:14 PM 62.6 °F 57.2 °F 82% 29.58 in 10.0 mi South 16.1 mph - N/A   Overcast
5:35 PM 62.6 °F 57.2 °F 82% 29.56 in 10.0 mi South 16.1 mph - N/A   Overcast
5:54 PM 62.6 °F 57.2 °F 82% 29.56 in 10.0 mi South 16.1 mph - N/A   Overcast
6:14 PM 66.2 °F 59.0 °F 78% 29.55 in 10.0 mi South 17.3 mph 21.9 mph N/A   Mostly Cloudy
6:34 PM 62.6 °F 57.2 °F 82% 29.54 in 10.0 mi South 17.3 mph - N/A   Mostly Cloudy
6:54 PM 62.6 °F 57.2 °F 82% 29.53 in 10.0 mi South 19.6 mph - N/A   Mostly Cloudy
7:15 PM 62.6 °F 57.2 °F 82% 29.52 in 10.0 mi South 18.4 mph - N/A   Scattered Clouds
7:34 PM 62.6 °F 57.2 °F 82% 29.51 in 10.0 mi South 15.0 mph - N/A   Scattered Clouds
7:54 PM 62.6 °F 57.2 °F 82% 29.52 in 10.0 mi SSW 15.0 mph 18.4 mph N/A   Mostly Cloudy
8:14 PM 64.4 °F 57.2 °F 77% 29.50 in 10.0 mi South 16.1 mph - N/A   Mostly Cloudy
8:34 PM 62.6 °F 57.2 °F 82% 29.49 in 10.0 mi South 16.1 mph - N/A   Clear
8:54 PM 64.4 °F 57.2 °F 77% 29.49 in 10.0 mi South 18.4 mph 29.9 mph N/A   Clear
9:14 PM 62.6 °F 57.2 °F 82% 29.48 in 10.0 mi South 16.1 mph - N/A   Mostly Cloudy
9:34 PM 62.6 °F 57.2 °F 82% 29.47 in 10.0 mi South 21.9 mph 25.3 mph N/A   Overcast
9:54 PM 62.6 °F 57.2 °F 82% 29.47 in 10.0 mi South 16.1 mph - N/A   Overcast
10:14 PM 62.6 °F 57.2 °F 82% 29.45 in 10.0 mi SSW 19.6 mph - N/A   Overcast
10:34 PM 64.4 °F 57.2 °F 77% 29.47 in 10.0 mi SW 23.0 mph 40.3 mph N/A   Overcast
10:54 PM 64.4 °F 55.4 °F 73% 29.47 in 10.0 mi SW 19.6 mph 28.8 mph N/A   Mostly Cloudy
11:14 PM 64.4 °F 55.4 °F 73% 29.48 in 10.0 mi SW 17.3 mph 29.9 mph N/A   Mostly Cloudy
11:34 PM 62.6 °F 53.6 °F 72% 29.48 in 10.0 mi WSW 18.4 mph 35.7 mph N/A   Overcast
11:55 PM 60.8 °F 51.8 °F 72% 29.49 in 10.0 mi SW 24.2 mph 34.5 mph N/A   Overcast